Time,TemperatureF,DewpointF,PressureIn,WindDirection,WindDirectionDegrees,WindSpeedMPH,WindSpeedGustMPH,Humidity,HourlyPrecipIn,Conditions,Clouds,dailyrainin,SolarRadiationWatts/m^2,SoftwareType,DateUTC
2013-04-20 00:00:00,53.7,47.7,29.72,WSW,245,5.0,13.0,80,0.07,,,0.84,0.00,VWS V14.01,2013-04-20 04:00:00,
2013-04-20 00:01:00,53.7,47.7,29.72,WSW,244,5.0,6.0,80,0.03,,,0.00,,VWS V14.01,2013-04-20 04:01:00,
2013-04-20 00:06:00,53.3,46.6,29.72,WNW,295,9.0,12.0,78,0.03,,,0.00,,VWS V14.01,2013-04-20 04:06:00,
2013-04-20 00:11:00,52.8,45.5,29.72,WSW,248,8.0,12.0,76,0.04,,,0.01,,VWS V14.01,2013-04-20 04:11:00,
2013-04-20 00:15:00,52.4,45.1,29.73,West,265,4.0,13.0,76,0.05,,,0.02,,VWS V14.01,2013-04-20 04:15:00,
2013-04-20 00:16:00,52.2,44.5,29.73,WNW,287,4.0,5.0,75,0.03,,,0.02,,VWS V14.01,2013-04-20 04:16:00,
2013-04-20 00:21:00,51.8,44.1,29.73,NW,313,6.0,13.0,75,0.03,,,0.02,,VWS V14.01,2013-04-20 04:21:00,
2013-04-20 00:26:00,51.5,43.8,29.73,WNW,283,0.0,13.0,75,0.03,,,0.02,,VWS V14.01,2013-04-20 04:26:00,
2013-04-20 00:30:00,51.2,44.2,29.71,West,281,0.0,13.0,77,0.03,,,0.02,,VWS V14.01,2013-04-20 04:30:00,
2013-04-20 00:31:00,51.2,44.2,29.71,West,280,5.0,5.0,77,0.03,,,0.02,,VWS V14.01,2013-04-20 04:31:00,
2013-04-20 00:36:00,51.0,44.0,29.71,WNW,288,2.0,6.0,77,0.03,,,0.02,,VWS V14.01,2013-04-20 04:36:00,
2013-04-20 00:41:00,50.9,44.6,29.71,West,275,0.0,6.0,79,0.03,,,0.02,,VWS V14.01,2013-04-20 04:41:00,
2013-04-20 00:45:00,50.7,44.8,29.71,WNW,283,0.0,6.0,80,0.04,,,0.03,0.00,VWS V14.01,2013-04-20 04:45:00,
2013-04-20 00:46:00,50.7,44.8,29.71,WNW,283,0.0,0.0,80,0.03,,,0.03,,VWS V14.01,2013-04-20 04:46:00,
2013-04-20 00:51:00,50.7,45.4,29.71,WNW,283,0.0,0.0,82,0.03,,,0.03,,VWS V14.01,2013-04-20 04:51:00,
2013-04-20 00:56:00,50.6,45.6,29.71,WNW,283,0.0,2.0,83,0.03,,,0.03,,VWS V14.01,2013-04-20 04:56:00,
2013-04-20 01:00:00,50.6,46.0,29.72,West,279,6.0,6.0,84,0.03,,,0.03,,VWS V14.01,2013-04-20 05:00:00,
2013-04-20 01:01:00,50.6,46.0,29.72,West,279,3.0,6.0,84,0.03,,,0.03,,VWS V14.01,2013-04-20 05:01:00,
2013-04-20 01:06:00,50.4,45.8,29.72,WNW,301,0.0,6.0,84,0.03,,,0.03,,VWS V14.01,2013-04-20 05:06:00,
2013-04-20 01:11:00,50.4,46.1,29.72,West,268,5.0,7.0,85,0.03,,,0.03,,VWS V14.01,2013-04-20 05:11:00,
2013-04-20 01:15:00,50.3,46.3,29.73,West,278,0.0,7.0,86,0.03,,,0.03,,VWS V14.01,2013-04-20 05:15:00,
2013-04-20 01:16:00,50.3,46.3,29.73,West,278,0.0,0.0,86,0.01,,,0.03,,VWS V14.01,2013-04-20 05:16:00,
2013-04-20 01:21:00,50.3,46.3,29.73,West,269,0.0,7.0,86,0.01,,,0.03,,VWS V14.01,2013-04-20 05:21:00,
2013-04-20 01:26:00,50.3,46.3,29.73,West,269,0.0,7.0,86,0.01,,,0.03,,VWS V14.01,2013-04-20 05:26:00,
2013-04-20 01:30:00,50.3,46.6,29.73,WNW,286,0.0,7.0,87,0.01,,,0.03,,VWS V14.01,2013-04-20 05:30:00,
2013-04-20 01:31:00,50.3,46.6,29.73,WNW,286,0.0,0.0,87,0.01,,,0.03,,VWS V14.01,2013-04-20 05:31:00,
2013-04-20 01:36:00,50.3,46.6,29.73,WNW,287,0.0,0.0,87,0.02,,,0.04,,VWS V14.01,2013-04-20 05:36:00,
2013-04-20 01:40:00,50.3,46.9,29.73,WNW,293,0.0,0.0,88,0.02,,,0.04,,VWS V14.01,2013-04-20 05:40:00,
2013-04-20 01:45:00,50.3,46.9,29.71,WNW,298,0.0,0.0,88,0.01,,,0.04,,VWS V14.01,2013-04-20 05:45:00,
2013-04-20 01:50:00,50.1,46.7,29.71,West,279,4.0,4.0,88,0.01,,,0.04,,VWS V14.01,2013-04-20 05:50:00,
2013-04-20 01:55:00,50.0,46.6,29.71,West,279,3.0,4.0,88,0.01,,,0.04,,VWS V14.01,2013-04-20 05:55:00,
2013-04-20 02:00:00,50.0,46.6,29.70,WNW,289,0.0,0.0,88,0.02,,,0.05,,VWS V14.01,2013-04-20 06:00:00,
2013-04-20 02:05:00,50.0,46.6,29.70,WNW,294,2.0,5.0,88,0.02,,,0.05,,VWS V14.01,2013-04-20 06:05:00,
2013-04-20 02:10:00,49.8,46.4,29.70,WSW,258,1.0,5.0,88,0.03,,,0.06,,VWS V14.01,2013-04-20 06:10:00,
2013-04-20 02:15:00,49.8,46.4,29.73,West,261,8.0,8.0,88,0.03,,,0.06,,VWS V14.01,2013-04-20 06:15:00,
2013-04-20 02:20:00,49.7,46.3,29.73,WSW,242,7.0,13.0,88,0.04,,,0.07,,VWS V14.01,2013-04-20 06:20:00,
2013-04-20 02:25:00,49.7,46.3,29.73,WNW,295,4.0,13.0,88,0.04,,,0.07,,VWS V14.01,2013-04-20 06:25:00,
2013-04-20 02:30:00,49.7,46.6,29.74,NE,35,4.0,13.0,89,0.04,,,0.07,,VWS V14.01,2013-04-20 06:30:00,
2013-04-20 02:35:00,49.6,46.5,29.74,West,266,6.0,12.0,89,0.04,,,0.07,,VWS V14.01,2013-04-20 06:35:00,
2013-04-20 02:40:00,49.4,46.3,29.74,West,279,4.0,12.0,89,0.05,,,0.08,,VWS V14.01,2013-04-20 06:40:00,
2013-04-20 02:45:00,49.4,46.3,29.74,WNW,286,4.0,12.0,89,0.05,,,0.08,,VWS V14.01,2013-04-20 06:45:00,
2013-04-20 02:50:00,49.4,46.3,29.74,NW,315,4.0,13.0,89,0.04,,,0.08,,VWS V14.01,2013-04-20 06:50:00,
2013-04-20 02:55:00,49.3,46.2,29.74,West,277,7.0,13.0,89,0.04,,,0.08,,VWS V14.01,2013-04-20 06:55:00,
2013-04-20 03:00:00,49.3,45.9,29.73,WNW,285,6.0,13.0,88,0.04,,,0.08,,VWS V14.01,2013-04-20 07:00:00,
2013-04-20 03:05:00,49.1,45.7,29.73,West,278,7.0,11.0,88,0.03,,,0.08,,VWS V14.01,2013-04-20 07:05:00,
2013-04-20 03:10:00,49.3,45.9,29.73,West,271,8.0,11.0,88,0.03,,,0.08,,VWS V14.01,2013-04-20 07:10:00,
2013-04-20 03:15:00,49.1,45.7,29.73,West,277,6.0,11.0,88,0.03,,,0.08,,VWS V14.01,2013-04-20 07:15:00,
2013-04-20 03:20:00,49.1,45.7,29.73,WSW,246,10.0,11.0,88,0.02,,,0.08,,VWS V14.01,2013-04-20 07:20:00,
2013-04-20 03:25:00,49.1,45.4,29.73,West,269,8.0,12.0,87,0.02,,,0.08,,VWS V14.01,2013-04-20 07:25:00,
2013-04-20 03:30:00,49.1,45.4,29.74,West,264,8.0,12.0,87,0.02,,,0.08,,VWS V14.01,2013-04-20 07:30:00,
2013-04-20 03:35:00,49.0,45.3,29.74,WSW,257,6.0,10.0,87,0.01,,,0.08,,VWS V14.01,2013-04-20 07:35:00,
2013-04-20 03:40:00,49.0,45.3,29.74,WNW,285,7.0,10.0,87,0.01,,,0.08,,VWS V14.01,2013-04-20 07:40:00,
2013-04-20 03:45:00,48.8,45.1,29.75,WNW,287,4.0,12.0,87,0.01,,,0.08,,VWS V14.01,2013-04-20 07:45:00,
2013-04-20 03:50:00,48.7,45.0,29.75,WNW,282,8.0,11.0,87,0.00,,,0.08,,VWS V14.01,2013-04-20 07:50:00,
2013-04-20 03:55:00,48.7,44.7,29.75,West,281,5.0,12.0,86,0.00,,,0.08,,VWS V14.01,2013-04-20 07:55:00,
2013-04-20 04:00:00,48.7,44.7,29.77,West,279,6.0,14.0,86,0.00,,,0.08,,VWS V14.01,2013-04-20 08:00:00,
2013-04-20 04:05:00,48.7,44.4,29.77,NW,320,1.0,14.0,85,0.00,,,0.08,,VWS V14.01,2013-04-20 08:05:00,
2013-04-20 04:10:00,48.5,43.9,29.77,WNW,286,6.0,14.0,84,0.00,,,0.08,,VWS V14.01,2013-04-20 08:10:00,
2013-04-20 04:15:00,48.4,43.5,29.77,West,275,7.0,14.0,83,0.00,,,0.08,,VWS V14.01,2013-04-20 08:15:00,
2013-04-20 04:20:00,48.4,43.2,29.77,NW,314,2.0,9.0,82,0.00,,,0.08,,VWS V14.01,2013-04-20 08:20:00,
2013-04-20 04:25:00,48.2,43.0,29.77,WSW,239,1.0,10.0,82,0.00,,,0.08,,VWS V14.01,2013-04-20 08:25:00,
2013-04-20 04:30:00,48.1,42.2,29.77,West,263,9.0,11.0,80,0.00,,,0.08,,VWS V14.01,2013-04-20 08:30:00,
2013-04-20 04:35:00,48.1,41.9,29.77,West,271,11.0,12.0,79,0.00,,,0.08,,VWS V14.01,2013-04-20 08:35:00,
2013-04-20 04:40:00,47.9,41.7,29.77,West,267,8.0,12.0,79,0.00,,,0.08,,VWS V14.01,2013-04-20 08:40:00,
2013-04-20 04:45:00,47.9,41.0,29.80,WSW,242,5.0,12.0,77,0.00,,,0.08,,VWS V14.01,2013-04-20 08:45:00,
2013-04-20 04:50:00,47.6,40.4,29.80,SW,235,1.0,10.0,76,0.00,,,0.08,,VWS V14.01,2013-04-20 08:50:00,
2013-04-20 04:55:00,47.6,40.4,29.80,West,270,8.0,10.0,76,0.01,,,0.09,,VWS V14.01,2013-04-20 08:55:00,
2013-04-20 05:00:00,47.3,40.1,29.80,WNW,301,6.0,12.0,76,0.01,,,0.09,,VWS V14.01,2013-04-20 09:00:00,
2013-04-20 05:05:00,47.2,40.0,29.80,WNW,295,0.0,9.0,76,0.01,,,0.09,,VWS V14.01,2013-04-20 09:05:00,
2013-04-20 05:10:00,47.2,40.4,29.80,West,281,0.0,9.0,77,0.01,,,0.09,,VWS V14.01,2013-04-20 09:10:00,
2013-04-20 05:15:00,47.2,40.4,29.81,WNW,288,6.0,9.0,77,0.01,,,0.09,,VWS V14.01,2013-04-20 09:15:00,
2013-04-20 05:20:00,47.2,40.4,29.81,West,276,2.0,10.0,77,0.01,,,0.09,,VWS V14.01,2013-04-20 09:20:00,
2013-04-20 05:25:00,47.2,40.7,29.81,WNW,283,0.0,10.0,78,0.01,,,0.09,,VWS V14.01,2013-04-20 09:25:00,
2013-04-20 05:30:00,47.2,41.0,29.82,WNW,294,0.0,10.0,79,0.01,,,0.09,,VWS V14.01,2013-04-20 09:30:00,
2013-04-20 05:35:00,47.2,41.4,29.82,West,264,0.0,5.0,80,0.01,,,0.09,,VWS V14.01,2013-04-20 09:35:00,
2013-04-20 05:40:00,47.2,41.7,29.82,West,263,7.0,7.0,81,0.01,,,0.09,,VWS V14.01,2013-04-20 09:40:00,
2013-04-20 05:45:00,47.2,41.7,29.83,NW,311,0.0,10.0,81,0.01,,,0.09,,VWS V14.01,2013-04-20 09:45:00,
2013-04-20 05:50:00,47.2,41.0,29.83,West,266,1.0,10.0,79,0.01,,,0.09,,VWS V14.01,2013-04-20 09:50:00,
2013-04-20 05:55:00,47.2,39.7,29.83,WSW,246,8.0,15.0,75,0.01,,,0.09,,VWS V14.01,2013-04-20 09:55:00,
2013-04-20 06:00:00,47.3,38.0,29.83,West,280,9.0,15.0,70,0.01,,,0.09,,VWS V14.01,2013-04-20 10:00:00,
2013-04-20 06:05:00,47.3,37.7,29.83,WSW,253,10.0,14.0,69,0.00,,,0.09,,VWS V14.01,2013-04-20 10:05:00,
2013-04-20 06:10:00,47.3,36.9,29.83,West,264,12.0,15.0,67,0.00,,,0.09,,VWS V14.01,2013-04-20 10:10:00,
2013-04-20 06:15:00,47.2,35.7,29.84,West,277,8.0,15.0,64,0.00,,,0.09,,VWS V14.01,2013-04-20 10:15:00,
2013-04-20 06:20:00,47.2,36.0,29.84,WSW,238,6.0,10.0,65,0.00,,,0.09,,VWS V14.01,2013-04-20 10:20:00,
2013-04-20 06:25:00,47.0,35.5,29.84,West,263,9.0,16.0,64,0.00,,,0.09,,VWS V14.01,2013-04-20 10:25:00,
2013-04-20 06:30:00,46.9,35.8,29.86,WSW,258,4.0,16.0,65,0.00,,,0.09,,VWS V14.01,2013-04-20 10:30:00,
2013-04-20 06:35:00,46.7,35.2,29.86,WNW,289,4.0,10.0,64,0.00,,,0.09,,VWS V14.01,2013-04-20 10:35:00,
2013-04-20 06:40:00,46.6,35.1,29.86,West,275,14.0,14.0,64,0.00,,,0.09,,VWS V14.01,2013-04-20 10:40:00,
2013-04-20 06:45:00,46.6,35.1,29.87,WNW,299,5.0,14.0,64,0.00,,,0.09,,VWS V14.01,2013-04-20 10:45:00,
2013-04-20 06:50:00,46.4,34.5,29.87,West,263,3.0,11.0,63,0.00,,,0.09,,VWS V14.01,2013-04-20 10:50:00,
2013-04-20 06:55:00,46.3,34.8,29.87,West,273,6.0,12.0,64,0.00,,,0.09,,VWS V14.01,2013-04-20 10:55:00,
2013-04-20 07:00:00,46.3,34.4,29.87,WNW,293,7.0,12.0,63,0.00,,,0.09,,VWS V14.01,2013-04-20 11:00:00,
2013-04-20 07:05:00,46.2,33.9,29.87,West,275,12.0,12.0,62,0.00,,,0.09,,VWS V14.01,2013-04-20 11:05:00,
2013-04-20 07:10:00,46.2,33.9,29.87,West,267,7.0,16.0,62,0.00,,,0.09,,VWS V14.01,2013-04-20 11:10:00,
2013-04-20 07:15:00,46.2,33.1,29.88,WSW,257,12.0,18.0,60,0.00,,,0.09,,VWS V14.01,2013-04-20 11:15:00,
2013-04-20 07:20:00,46.2,33.1,29.88,West,277,5.0,15.0,60,0.00,,,0.09,,VWS V14.01,2013-04-20 11:20:00,
2013-04-20 07:25:00,46.3,33.2,29.88,WNW,286,2.0,15.0,60,0.00,,,0.09,,VWS V14.01,2013-04-20 11:25:00,
2013-04-20 07:30:00,46.2,33.5,29.89,West,261,6.0,15.0,61,0.00,,,0.09,,VWS V14.01,2013-04-20 11:30:00,
2013-04-20 07:35:00,46.2,33.5,29.89,WNW,285,8.0,12.0,61,0.00,,,0.09,,VWS V14.01,2013-04-20 11:35:00,
2013-04-20 07:40:00,46.2,33.5,29.89,WNW,292,2.0,12.0,61,0.00,,,0.09,,VWS V14.01,2013-04-20 11:40:00,
2013-04-20 07:45:00,46.2,33.5,29.89,West,272,5.0,19.0,61,0.00,,,0.09,,VWS V14.01,2013-04-20 11:45:00,
2013-04-20 07:50:00,46.2,33.5,29.89,West,273,10.0,16.0,61,0.00,,,0.09,,VWS V14.01,2013-04-20 11:50:00,
2013-04-20 07:55:00,46.2,32.7,29.89,WSW,254,12.0,18.0,59,0.00,,,0.09,,VWS V14.01,2013-04-20 11:55:00,
2013-04-20 07:59:00,46.2,32.2,29.90,West,281,5.0,18.0,58,0.00,,,0.09,,VWS V14.01,2013-04-20 11:59:00,
2013-04-20 08:00:00,46.2,32.7,29.90,WSW,242,9.0,18.0,59,0.00,,,0.09,,VWS V14.01,2013-04-20 12:00:00,
2013-04-20 08:04:00,46.3,32.3,29.90,West,270,5.0,18.0,58,0.00,,,0.09,,VWS V14.01,2013-04-20 12:04:00,
2013-04-20 08:10:00,46.3,32.3,29.90,WSW,257,20.0,20.0,58,0.00,,,0.09,,VWS V14.01,2013-04-20 12:10:00,
2013-04-20 08:15:00,46.3,31.9,29.90,West,281,8.0,8.0,57,0.00,,,0.09,,VWS V14.01,2013-04-20 12:15:00,
2013-04-20 08:20:00,46.3,31.9,29.90,WSW,253,13.0,14.0,57,0.00,,,0.09,,VWS V14.01,2013-04-20 12:20:00,
2013-04-20 08:25:00,46.3,31.5,29.90,West,281,9.0,15.0,56,0.00,,,0.09,,VWS V14.01,2013-04-20 12:25:00,
2013-04-20 08:30:00,46.2,30.5,29.90,West,268,10.0,21.0,54,0.00,,,0.09,,VWS V14.01,2013-04-20 12:30:00,
2013-04-20 08:35:00,46.2,31.4,29.90,NW,306,7.0,12.0,56,0.00,,,0.09,,VWS V14.01,2013-04-20 12:35:00,
2013-04-20 08:40:00,46.3,30.6,29.90,WNW,286,0.0,16.0,54,0.00,,,0.09,,VWS V14.01,2013-04-20 12:40:00,
2013-04-20 08:45:00,46.3,30.6,29.90,West,268,5.0,16.0,54,0.00,,,0.09,,VWS V14.01,2013-04-20 12:45:00,
2013-04-20 08:50:00,46.3,30.6,29.90,West,262,8.0,13.0,54,0.00,,,0.09,,VWS V14.01,2013-04-20 12:50:00,
2013-04-20 08:55:00,46.3,30.6,29.90,West,272,9.0,16.0,54,0.00,,,0.09,,VWS V14.01,2013-04-20 12:55:00,
2013-04-20 09:00:00,46.3,29.6,29.90,WNW,299,4.0,20.0,52,0.00,,,0.09,,VWS V14.01,2013-04-20 13:00:00,
2013-04-20 09:05:00,46.4,29.3,29.90,SW,233,7.0,18.0,51,0.00,,,0.09,,VWS V14.01,2013-04-20 13:05:00,
2013-04-20 09:10:00,46.4,29.3,29.90,West,272,12.0,18.0,51,0.00,,,0.09,,VWS V14.01,2013-04-20 13:10:00,
2013-04-20 09:15:00,46.4,28.8,29.91,West,267,4.0,20.0,50,0.00,,,0.09,,VWS V14.01,2013-04-20 13:15:00,
2013-04-20 09:20:00,46.4,28.3,29.91,NW,313,9.0,16.0,49,0.00,,,0.09,,VWS V14.01,2013-04-20 13:20:00,
2013-04-20 09:25:00,46.4,28.8,29.91,West,274,18.0,18.0,50,0.00,,,0.09,,VWS V14.01,2013-04-20 13:25:00,
2013-04-20 09:30:00,46.4,29.3,29.92,West,271,13.0,18.0,51,0.00,,,0.09,,VWS V14.01,2013-04-20 13:30:00,
2013-04-20 09:35:00,46.4,27.8,29.92,NW,312,8.0,18.0,48,0.00,,,0.09,,VWS V14.01,2013-04-20 13:35:00,
2013-04-20 09:40:00,46.6,29.5,29.92,SW,232,12.0,19.0,51,0.00,,,0.09,,VWS V14.01,2013-04-20 13:40:00,
2013-04-20 09:45:00,46.4,28.3,29.93,West,268,4.0,19.0,49,0.00,,,0.09,,VWS V14.01,2013-04-20 13:45:00,
2013-04-20 09:50:00,46.4,28.8,29.93,West,279,7.0,13.0,50,0.00,,,0.09,,VWS V14.01,2013-04-20 13:50:00,
2013-04-20 09:55:00,46.3,28.2,29.93,WSW,242,12.0,18.0,49,0.00,,,0.09,,VWS V14.01,2013-04-20 13:55:00,
2013-04-20 10:00:00,46.0,25.3,29.94,WNW,285,11.0,19.0,44,0.00,,,0.09,,VWS V14.01,2013-04-20 14:00:00,
2013-04-20 10:05:00,46.0,25.3,29.94,WSW,246,4.0,21.0,44,0.00,,,0.09,,VWS V14.01,2013-04-20 14:05:00,
2013-04-20 10:10:00,45.9,25.8,29.94,West,273,8.0,21.0,45,0.00,,,0.09,,VWS V14.01,2013-04-20 14:10:00,
2013-04-20 10:15:00,46.0,25.9,29.96,WSW,243,7.0,21.0,45,0.00,,,0.09,,VWS V14.01,2013-04-20 14:15:00,
2013-04-20 10:20:00,46.0,26.9,29.96,West,267,9.0,15.0,47,0.00,,,0.09,,VWS V14.01,2013-04-20 14:20:00,
2013-04-20 10:25:00,46.2,28.1,29.96,West,274,13.0,15.0,49,0.00,,,0.09,,VWS V14.01,2013-04-20 14:25:00,
2013-04-20 10:30:00,46.2,28.6,29.97,West,268,10.0,15.0,50,0.00,,,0.09,,VWS V14.01,2013-04-20 14:30:00,
2013-04-20 10:35:00,46.2,28.1,29.97,WSW,256,11.0,23.0,49,0.00,,,0.09,,VWS V14.01,2013-04-20 14:35:00,
2013-04-20 10:40:00,46.2,28.1,29.97,West,279,8.0,23.0,49,0.00,,,0.09,,VWS V14.01,2013-04-20 14:40:00,
2013-04-20 10:45:00,46.6,28.0,29.97,West,259,12.0,23.0,48,0.00,,,0.09,,VWS V14.01,2013-04-20 14:45:00,
2013-04-20 10:50:00,46.6,29.0,29.97,WNW,283,4.0,14.0,50,0.00,,,0.09,,VWS V14.01,2013-04-20 14:50:00,
2013-04-20 10:55:00,47.0,28.9,29.97,West,267,6.0,14.0,49,0.00,,,0.09,,VWS V14.01,2013-04-20 14:55:00,
2013-04-20 11:00:00,47.0,29.3,29.98,SW,235,6.0,14.0,50,0.00,,,0.09,,VWS V14.01,2013-04-20 15:00:00,
2013-04-20 11:05:00,47.3,29.6,29.98,WSW,239,7.0,14.0,50,0.00,,,0.09,,VWS V14.01,2013-04-20 15:05:00,
2013-04-20 11:10:00,47.5,30.3,29.98,West,266,6.0,16.0,51,0.00,,,0.09,,VWS V14.01,2013-04-20 15:10:00,
2013-04-20 11:15:00,47.8,29.6,29.98,WSW,244,12.0,19.0,49,0.00,,,0.09,,VWS V14.01,2013-04-20 15:15:00,
2013-04-20 11:20:00,48.2,30.5,29.98,SW,221,2.0,16.0,50,0.00,,,0.09,,VWS V14.01,2013-04-20 15:20:00,
2013-04-20 11:25:00,49.0,31.2,29.98,WNW,292,10.0,16.0,50,0.00,,,0.09,,VWS V14.01,2013-04-20 15:25:00,
2013-04-20 11:30:00,49.8,30.4,29.98,WSW,257,12.0,19.0,47,0.00,,,0.09,,VWS V14.01,2013-04-20 15:30:00,
2013-04-20 11:35:00,49.3,28.9,29.98,WNW,282,13.0,19.0,45,0.00,,,0.09,,VWS V14.01,2013-04-20 15:35:00,
2013-04-20 11:40:00,49.4,30.5,29.98,West,262,6.0,19.0,48,0.00,,,0.09,,VWS V14.01,2013-04-20 15:40:00,
2013-04-20 11:45:00,49.6,29.7,29.98,WNW,284,8.0,19.0,46,0.00,,,0.09,,VWS V14.01,2013-04-20 15:45:00,
2013-04-20 11:50:00,50.0,28.4,29.98,NNW,340,9.0,18.0,43,0.00,,,0.09,,VWS V14.01,2013-04-20 15:50:00,
2013-04-20 11:55:00,50.4,28.8,29.98,West,263,9.0,18.0,43,0.00,,,0.09,,VWS V14.01,2013-04-20 15:55:00,
2013-04-20 12:00:00,50.9,28.1,29.99,WNW,284,10.0,21.0,41,0.00,,,0.09,,VWS V14.01,2013-04-20 16:00:00,
2013-04-20 12:05:00,50.6,27.8,29.99,WSW,242,10.0,18.0,41,0.00,,,0.09,,VWS V14.01,2013-04-20 16:05:00,
2013-04-20 12:10:00,50.0,27.8,29.99,WNW,286,14.0,22.0,42,0.00,,,0.09,,VWS V14.01,2013-04-20 16:10:00,
2013-04-20 12:15:00,50.3,27.5,29.98,WNW,300,7.0,22.0,41,0.00,,,0.09,,VWS V14.01,2013-04-20 16:15:00,
2013-04-20 12:20:00,51.5,28.6,29.98,WSW,237,12.0,21.0,41,0.00,,,0.09,,VWS V14.01,2013-04-20 16:20:00,
2013-04-20 12:25:00,51.6,29.9,29.98,WNW,285,13.0,22.0,43,0.00,,,0.09,,VWS V14.01,2013-04-20 16:25:00,
2013-04-20 12:30:00,50.9,29.2,29.98,SW,229,8.0,22.0,43,0.00,,,0.09,,VWS V14.01,2013-04-20 16:30:00,
2013-04-20 12:35:00,51.0,29.3,29.98,WSW,257,21.0,25.0,43,0.00,,,0.09,,VWS V14.01,2013-04-20 16:35:00,
2013-04-20 12:40:00,51.0,27.5,29.98,West,260,12.0,25.0,40,0.00,,,0.09,,VWS V14.01,2013-04-20 16:40:00,
2013-04-20 12:45:00,51.6,27.5,29.98,West,279,10.0,25.0,39,0.00,,,0.09,,VWS V14.01,2013-04-20 16:45:00,
2013-04-20 12:50:00,52.2,29.2,29.98,West,272,15.0,20.0,41,0.00,,,0.09,,VWS V14.01,2013-04-20 16:50:00,
2013-04-20 12:55:00,51.6,27.5,29.98,WSW,258,11.0,27.0,39,0.00,,,0.09,,VWS V14.01,2013-04-20 16:55:00,
2013-04-20 13:00:00,51.8,28.3,29.98,West,263,11.0,27.0,40,0.00,,,0.09,,VWS V14.01,2013-04-20 17:00:00,
2013-04-20 13:05:00,52.8,28.5,29.98,North,11,0.0,22.0,39,0.00,,,0.09,,VWS V14.01,2013-04-20 17:05:00,
2013-04-20 13:10:00,53.1,28.2,29.98,West,267,19.0,22.0,38,0.00,,,0.09,,VWS V14.01,2013-04-20 17:10:00,
2013-04-20 13:15:00,52.5,28.3,29.98,WSW,253,16.0,22.0,39,0.00,,,0.09,,VWS V14.01,2013-04-20 17:15:00,
2013-04-20 13:20:00,52.1,29.1,29.98,WNW,284,3.0,21.0,41,0.00,,,0.09,,VWS V14.01,2013-04-20 17:20:00,
2013-04-20 13:25:00,52.7,28.5,29.98,WSW,238,11.0,21.0,39,0.00,,,0.09,,VWS V14.01,2013-04-20 17:25:00,
2013-04-20 13:30:00,52.7,27.8,29.98,West,273,3.0,24.0,38,0.00,,,0.09,,VWS V14.01,2013-04-20 17:30:00,
2013-04-20 13:35:00,52.7,26.5,29.98,West,277,8.0,20.0,36,0.00,,,0.09,,VWS V14.01,2013-04-20 17:35:00,
2013-04-20 13:40:00,53.0,28.7,29.98,WSW,250,9.0,21.0,39,0.00,,,0.09,,VWS V14.01,2013-04-20 17:40:00,
2013-04-20 13:45:00,53.0,28.1,29.99,West,275,13.0,21.0,38,0.00,,,0.09,,VWS V14.01,2013-04-20 17:45:00,
2013-04-20 13:50:00,52.5,26.3,29.99,WSW,246,9.0,24.0,36,0.00,,,0.09,,VWS V14.01,2013-04-20 17:50:00,
2013-04-20 13:55:00,52.7,25.8,29.99,WNW,283,0.0,24.0,35,0.00,,,0.09,,VWS V14.01,2013-04-20 17:55:00,
2013-04-20 14:00:00,52.4,26.2,29.98,West,281,3.0,24.0,36,0.00,,,0.09,,VWS V14.01,2013-04-20 18:00:00,
2013-04-20 14:05:00,52.1,26.0,29.98,WNW,288,11.0,15.0,36,0.00,,,0.09,,VWS V14.01,2013-04-20 18:05:00,
2013-04-20 14:10:00,52.1,26.0,29.98,WSW,243,7.0,22.0,36,0.00,,,0.09,,VWS V14.01,2013-04-20 18:10:00,
2013-04-20 14:15:00,53.3,25.0,29.99,WSW,256,7.0,22.0,33,0.00,,,0.09,,VWS V14.01,2013-04-20 18:15:00,
2013-04-20 14:20:00,53.5,26.5,29.99,SW,235,7.0,15.0,35,0.00,,,0.09,,VWS V14.01,2013-04-20 18:20:00,
2013-04-20 14:25:00,53.4,26.5,29.99,SW,233,8.0,15.0,35,0.00,,,0.09,,VWS V14.01,2013-04-20 18:25:00,
2013-04-20 14:30:00,53.4,26.5,29.98,NW,313,7.0,16.0,35,0.00,,,0.09,,VWS V14.01,2013-04-20 18:30:00,
2013-04-20 14:34:00,54.0,27.7,29.98,WNW,303,9.0,16.0,36,0.00,,,0.09,,VWS V14.01,2013-04-20 18:34:00,
2013-04-20 14:39:00,54.3,27.2,29.98,WSW,252,12.0,16.0,35,0.00,,,0.09,,VWS V14.01,2013-04-20 18:39:00,
2013-04-20 14:44:00,54.4,25.9,29.99,West,276,13.0,21.0,33,0.00,,,0.09,,VWS V14.01,2013-04-20 18:44:00,
2013-04-20 14:45:00,54.3,25.8,29.99,NW,312,10.0,21.0,33,0.00,,,0.09,,VWS V14.01,2013-04-20 18:45:00,
2013-04-20 14:49:00,54.4,25.9,29.99,NW,306,11.0,28.0,33,0.00,,,0.09,,VWS V14.01,2013-04-20 18:49:00,
2013-04-20 14:54:00,53.5,25.1,29.99,West,271,12.0,28.0,33,0.00,,,0.09,,VWS V14.01,2013-04-20 18:54:00,
2013-04-20 14:59:00,53.3,25.0,29.99,West,281,15.0,28.0,33,0.00,,,0.09,,VWS V14.01,2013-04-20 18:59:00,
2013-04-20 15:00:00,53.3,24.2,29.99,WSW,254,10.0,28.0,32,0.00,,,0.09,,VWS V14.01,2013-04-20 19:00:00,
2013-04-20 15:04:00,53.4,25.0,29.99,West,279,9.0,14.0,33,0.00,,,0.09,,VWS V14.01,2013-04-20 19:04:00,
2013-04-20 15:09:00,54.7,26.2,29.99,West,261,10.0,18.0,33,0.00,,,0.09,,VWS V14.01,2013-04-20 19:09:00,
2013-04-20 15:14:00,54.3,24.3,29.99,NNW,329,1.0,23.0,31,0.00,,,0.09,,VWS V14.01,2013-04-20 19:14:00,
2013-04-20 15:15:00,54.1,25.6,29.99,West,278,8.0,23.0,33,0.00,,,0.09,,VWS V14.01,2013-04-20 19:15:00,
2013-04-20 15:19:00,53.8,25.4,29.99,WSW,242,11.0,19.0,33,0.00,,,0.09,,VWS V14.01,2013-04-20 19:19:00,
2013-04-20 15:24:00,53.5,25.1,29.99,West,269,8.0,19.0,33,0.00,,,0.09,,VWS V14.01,2013-04-20 19:24:00,
2013-04-20 15:29:00,54.4,26.6,29.99,West,277,10.0,19.0,34,0.00,,,0.09,,VWS V14.01,2013-04-20 19:29:00,
2013-04-20 15:30:00,54.9,27.1,29.99,SW,221,14.0,19.0,34,0.00,,,0.09,,VWS V14.01,2013-04-20 19:30:00,
2013-04-20 15:34:00,55.2,27.3,29.99,WSW,244,12.0,22.0,34,0.00,,,0.09,,VWS V14.01,2013-04-20 19:34:00,
2013-04-20 15:39:00,54.9,26.4,29.99,West,263,11.0,22.0,33,0.00,,,0.09,,VWS V14.01,2013-04-20 19:39:00,
2013-04-20 15:44:00,55.6,27.0,29.99,West,270,18.0,22.0,33,0.00,,,0.09,,VWS V14.01,2013-04-20 19:44:00,
2013-04-20 15:45:00,55.5,26.1,30.00,WSW,257,12.0,23.0,32,0.00,,,0.09,,VWS V14.01,2013-04-20 19:45:00,
2013-04-20 15:49:00,55.0,24.9,30.00,West,275,9.0,21.0,31,0.00,,,0.09,,VWS V14.01,2013-04-20 19:49:00,
2013-04-20 15:54:00,54.6,24.6,30.00,West,278,14.0,26.0,31,0.00,,,0.09,,VWS V14.01,2013-04-20 19:54:00,
2013-04-20 15:59:00,54.9,25.6,30.00,WNW,290,12.0,26.0,32,0.00,,,0.09,,VWS V14.01,2013-04-20 19:59:00,
2013-04-20 16:00:00,54.9,24.9,30.01,SW,236,12.0,26.0,31,0.00,,,0.09,,VWS V14.01,2013-04-20 20:00:00,
2013-04-20 16:04:00,55.2,25.9,30.01,SW,227,10.0,13.0,32,0.00,,,0.09,,VWS V14.01,2013-04-20 20:04:00,
2013-04-20 16:09:00,55.6,24.7,30.01,NW,321,10.0,24.0,30,0.00,,,0.09,,VWS V14.01,2013-04-20 20:09:00,
2013-04-20 16:14:00,55.5,25.4,30.01,WSW,245,15.0,25.0,31,0.00,,,0.09,,VWS V14.01,2013-04-20 20:14:00,
2013-04-20 16:15:00,55.5,25.4,30.01,WSW,241,8.0,25.0,31,0.00,,,0.09,,VWS V14.01,2013-04-20 20:15:00,
2013-04-20 16:19:00,55.3,26.0,30.01,West,269,14.0,22.0,32,0.00,,,0.09,,VWS V14.01,2013-04-20 20:19:00,
2013-04-20 16:24:00,55.3,25.2,30.01,West,277,14.0,22.0,31,0.00,,,0.09,,VWS V14.01,2013-04-20 20:24:00,
2013-04-20 16:29:00,55.8,25.6,30.01,West,276,16.0,22.0,31,0.00,,,0.09,,VWS V14.01,2013-04-20 20:29:00,
2013-04-20 16:30:00,55.8,25.6,30.02,WNW,284,10.0,22.0,31,0.00,,,0.09,,VWS V14.01,2013-04-20 20:30:00,
2013-04-20 16:34:00,55.5,26.1,30.02,West,279,20.0,22.0,32,0.00,,,0.09,,VWS V14.01,2013-04-20 20:34:00,
2013-04-20 16:39:00,55.0,24.9,30.02,NNW,335,6.0,22.0,31,0.00,,,0.09,,VWS V14.01,2013-04-20 20:39:00,
2013-04-20 16:44:00,55.2,25.1,30.02,West,265,7.0,22.0,31,0.00,,,0.09,,VWS V14.01,2013-04-20 20:44:00,
2013-04-20 16:45:00,55.0,24.9,30.03,West,273,11.0,22.0,31,0.00,,,0.09,,VWS V14.01,2013-04-20 20:45:00,
2013-04-20 16:49:00,54.9,24.1,30.03,WNW,303,6.0,14.0,30,0.00,,,0.09,,VWS V14.01,2013-04-20 20:49:00,
2013-04-20 16:54:00,54.4,23.6,30.03,NW,313,11.0,18.0,30,0.00,,,0.09,,VWS V14.01,2013-04-20 20:54:00,
2013-04-20 16:59:00,54.4,24.4,30.03,West,261,6.0,18.0,31,0.00,,,0.09,,VWS V14.01,2013-04-20 20:59:00,
2013-04-20 17:00:00,54.6,23.8,30.04,WNW,303,5.0,18.0,30,0.00,,,0.09,,VWS V14.01,2013-04-20 21:00:00,
2013-04-20 17:04:00,54.9,24.1,30.04,West,279,9.0,12.0,30,0.00,,,0.09,,VWS V14.01,2013-04-20 21:04:00,
2013-04-20 17:09:00,55.3,26.0,30.04,West,281,12.0,23.0,32,0.00,,,0.09,,VWS V14.01,2013-04-20 21:09:00,
2013-04-20 17:14:00,54.9,24.1,30.04,West,279,11.0,23.0,30,0.00,,,0.09,,VWS V14.01,2013-04-20 21:14:00,
2013-04-20 17:15:00,54.9,24.9,30.05,SW,236,7.0,23.0,31,0.00,,,0.09,,VWS V14.01,2013-04-20 21:15:00,
2013-04-20 17:19:00,55.0,23.4,30.05,WSW,250,10.0,15.0,29,0.00,,,0.09,,VWS V14.01,2013-04-20 21:19:00,
2013-04-20 17:24:00,55.0,24.2,30.05,West,273,19.0,20.0,30,0.00,,,0.09,,VWS V14.01,2013-04-20 21:24:00,
2013-04-20 17:29:00,54.7,23.9,30.05,WNW,297,14.0,20.0,30,0.00,,,0.09,,VWS V14.01,2013-04-20 21:29:00,
2013-04-20 17:30:00,54.6,24.6,30.06,West,261,8.0,20.0,31,0.00,,,0.09,,VWS V14.01,2013-04-20 21:30:00,
2013-04-20 17:34:00,54.4,24.4,30.06,WSW,254,12.0,20.0,31,0.00,,,0.09,,VWS V14.01,2013-04-20 21:34:00,
2013-04-20 17:39:00,54.0,25.6,30.06,West,267,11.0,20.0,33,0.00,,,0.09,,VWS V14.01,2013-04-20 21:39:00,
2013-04-20 17:44:00,53.8,25.4,30.06,SW,223,10.0,20.0,33,0.00,,,0.09,,VWS V14.01,2013-04-20 21:44:00,
2013-04-20 17:45:00,53.8,24.6,30.06,WSW,250,8.0,20.0,32,0.00,,,0.09,,VWS V14.01,2013-04-20 21:45:00,
2013-04-20 17:49:00,54.0,24.1,30.06,WNW,292,11.0,12.0,31,0.00,,,0.09,,VWS V14.01,2013-04-20 21:49:00,
2013-04-20 17:54:00,54.1,24.2,30.06,West,277,10.0,18.0,31,0.00,,,0.09,,VWS V14.01,2013-04-20 21:54:00,
2013-04-20 17:59:00,54.1,24.2,30.06,WNW,294,8.0,18.0,31,0.00,,,0.09,,VWS V14.01,2013-04-20 21:59:00,
2013-04-20 18:00:00,54.1,24.2,30.07,West,270,16.0,18.0,31,0.00,,,0.09,,VWS V14.01,2013-04-20 22:00:00,
2013-04-20 18:04:00,54.1,23.4,30.07,SW,228,12.0,23.0,30,0.00,,,0.09,,VWS V14.01,2013-04-20 22:04:00,
2013-04-20 18:09:00,54.1,24.9,30.07,SW,222,8.0,23.0,32,0.00,,,0.09,,VWS V14.01,2013-04-20 22:09:00,
2013-04-20 18:14:00,53.8,24.6,30.07,WSW,238,8.0,23.0,32,0.00,,,0.09,,VWS V14.01,2013-04-20 22:14:00,
2013-04-20 18:15:00,53.8,24.6,30.08,West,281,11.0,23.0,32,0.00,,,0.09,,VWS V14.01,2013-04-20 22:15:00,
2013-04-20 18:19:00,54.0,24.1,30.08,WSW,246,5.0,12.0,31,0.00,,,0.09,,VWS V14.01,2013-04-20 22:19:00,
2013-04-20 18:24:00,54.0,24.8,30.08,West,265,7.0,18.0,32,0.00,,,0.09,,VWS V14.01,2013-04-20 22:24:00,
2013-04-20 18:29:00,53.3,24.2,30.08,West,264,12.0,21.0,32,0.00,,,0.09,,VWS V14.01,2013-04-20 22:29:00,
2013-04-20 18:30:00,53.0,24.0,30.09,WSW,248,13.0,21.0,32,0.00,,,0.09,,VWS V14.01,2013-04-20 22:30:00,
2013-04-20 18:34:00,52.7,24.4,30.09,WSW,253,11.0,15.0,33,0.00,,,0.09,,VWS V14.01,2013-04-20 22:34:00,
2013-04-20 18:41:00,52.5,24.2,30.09,NNW,339,10.0,15.0,33,0.00,,,0.09,,VWS V14.01,2013-04-20 22:41:00,
2013-04-20 18:45:00,52.8,23.8,30.09,WSW,249,10.0,19.0,32,0.00,,,0.09,,VWS V14.01,2013-04-20 22:45:00,
2013-04-20 18:46:00,52.8,24.5,30.09,West,259,11.0,13.0,33,0.00,,,0.09,,VWS V14.01,2013-04-20 22:46:00,
2013-04-20 18:51:00,52.8,23.8,30.09,West,278,9.0,14.0,32,0.00,,,0.09,,VWS V14.01,2013-04-20 22:51:00,
2013-04-20 18:56:00,52.8,23.8,30.09,WNW,286,14.0,19.0,32,0.00,,,0.09,,VWS V14.01,2013-04-20 22:56:00,
2013-04-20 19:00:00,52.4,22.7,30.10,West,279,10.0,19.0,31,0.00,,,0.09,,VWS V14.01,2013-04-20 23:00:00,
2013-04-20 19:01:00,52.4,24.2,30.10,West,279,14.0,14.0,33,0.00,,,0.09,,VWS V14.01,2013-04-20 23:01:00,
2013-04-20 19:06:00,52.1,24.6,30.10,West,281,11.0,14.0,34,0.00,,,0.09,,VWS V14.01,2013-04-20 23:06:00,
2013-04-20 19:11:00,51.9,25.1,30.10,West,269,9.0,14.0,35,0.00,,,0.09,,VWS V14.01,2013-04-20 23:11:00,
2013-04-20 19:15:00,51.6,24.9,30.11,SW,225,8.0,14.0,35,0.00,,,0.09,,VWS V14.01,2013-04-20 23:15:00,
2013-04-20 19:16:00,51.6,24.9,30.11,West,267,7.0,12.0,35,0.00,,,0.09,,VWS V14.01,2013-04-20 23:16:00,
2013-04-20 19:21:00,51.3,25.3,30.11,WNW,297,5.0,12.0,36,0.00,,,0.09,,VWS V14.01,2013-04-20 23:21:00,
2013-04-20 19:26:00,51.2,25.8,30.11,WSW,254,8.0,14.0,37,0.00,,,0.09,,VWS V14.01,2013-04-20 23:26:00,
2013-04-20 19:30:00,50.9,24.9,30.12,West,271,5.0,19.0,36,0.00,,,0.09,,VWS V14.01,2013-04-20 23:30:00,
2013-04-20 19:31:00,50.9,24.9,30.12,West,264,2.0,13.0,36,0.00,,,0.09,,VWS V14.01,2013-04-20 23:31:00,
2013-04-20 19:36:00,50.7,24.1,30.12,WNW,302,6.0,15.0,35,0.00,,,0.09,,VWS V14.01,2013-04-20 23:36:00,
2013-04-20 19:41:00,50.6,24.0,30.12,WNW,297,5.0,15.0,35,0.00,,,0.09,,VWS V14.01,2013-04-20 23:41:00,
2013-04-20 19:45:00,50.6,24.6,30.14,West,280,6.0,15.0,36,0.00,,,0.09,,VWS V14.01,2013-04-20 23:45:00,
2013-04-20 19:46:00,50.6,24.6,30.14,West,280,2.0,6.0,36,0.00,,,0.09,,VWS V14.01,2013-04-20 23:46:00,
2013-04-20 19:51:00,50.3,25.0,30.14,West,274,0.0,8.0,37,0.00,,,0.09,,VWS V14.01,2013-04-20 23:51:00,
2013-04-20 19:56:00,50.0,24.8,30.14,West,275,3.0,11.0,37,0.00,,,0.09,,VWS V14.01,2013-04-20 23:56:00,
2013-04-20 20:00:00,49.8,24.6,30.15,West,264,7.0,11.0,37,0.00,,,0.09,,VWS V14.01,2013-04-21 00:00:00,
2013-04-20 20:01:00,49.8,24.6,30.15,West,269,6.0,9.0,37,0.00,,,0.09,,VWS V14.01,2013-04-21 00:01:00,
2013-04-20 20:06:00,49.8,23.9,30.15,West,273,3.0,10.0,36,0.00,,,0.09,,VWS V14.01,2013-04-21 00:06:00,
2013-04-20 20:11:00,49.8,23.9,30.15,WNW,290,5.0,15.0,36,0.00,,,0.09,,VWS V14.01,2013-04-21 00:11:00,
2013-04-20 20:15:00,49.7,23.9,30.17,West,271,5.0,15.0,36,0.00,,,0.09,,VWS V14.01,2013-04-21 00:15:00,
2013-04-20 20:16:00,49.7,24.5,30.17,WSW,258,6.0,8.0,37,0.00,,,0.09,,VWS V14.01,2013-04-21 00:16:00,
2013-04-20 20:21:00,49.6,25.0,30.17,West,277,5.0,9.0,38,0.00,,,0.09,,VWS V14.01,2013-04-21 00:21:00,
2013-04-20 20:26:00,49.4,24.2,30.17,West,267,7.0,9.0,37,0.00,,,0.09,,VWS V14.01,2013-04-21 00:26:00,
2013-04-20 20:30:00,49.4,24.9,30.18,WNW,297,4.0,10.0,38,0.00,,,0.09,,VWS V14.01,2013-04-21 00:30:00,
2013-04-20 20:31:00,49.4,24.2,30.18,West,263,0.0,6.0,37,0.00,,,0.09,,VWS V14.01,2013-04-21 00:31:00,
2013-04-20 20:36:00,49.4,24.9,30.18,West,271,6.0,8.0,38,0.00,,,0.09,,VWS V14.01,2013-04-21 00:36:00,
2013-04-20 20:41:00,49.3,25.4,30.18,WNW,296,6.0,8.0,39,0.00,,,0.09,,VWS V14.01,2013-04-21 00:41:00,
2013-04-20 20:45:00,49.0,25.8,30.19,WNW,284,2.0,8.0,40,0.00,,,0.09,,VWS V14.01,2013-04-21 00:45:00,
2013-04-20 20:46:00,49.0,25.8,30.19,WNW,296,4.0,5.0,40,0.00,,,0.09,,VWS V14.01,2013-04-21 00:46:00,
2013-04-20 20:51:00,48.8,25.6,30.19,West,281,6.0,8.0,40,0.00,,,0.09,,VWS V14.01,2013-04-21 00:51:00,
2013-04-20 20:56:00,48.7,25.5,30.19,WNW,284,0.0,10.0,40,0.00,,,0.09,,VWS V14.01,2013-04-21 00:56:00,
2013-04-20 21:00:00,48.8,25.0,30.20,West,265,5.0,11.0,39,0.00,,,0.09,,VWS V14.01,2013-04-21 01:00:00,
2013-04-20 21:01:00,48.8,25.0,30.20,West,271,4.0,6.0,39,0.00,,,0.09,,VWS V14.01,2013-04-21 01:01:00,
2013-04-20 21:06:00,48.8,25.6,30.20,NNW,346,0.0,6.0,40,0.00,,,0.09,,VWS V14.01,2013-04-21 01:06:00,
2013-04-20 21:11:00,48.7,25.5,30.20,WSW,242,4.0,7.0,40,0.00,,,0.09,,VWS V14.01,2013-04-21 01:11:00,
2013-04-20 21:15:00,48.7,24.9,30.22,WNW,288,7.0,9.0,39,0.00,,,0.09,,VWS V14.01,2013-04-21 01:15:00,
2013-04-20 21:16:00,48.5,25.3,30.22,NW,315,1.0,7.0,40,0.00,,,0.09,,VWS V14.01,2013-04-21 01:16:00,
2013-04-20 21:21:00,48.4,24.6,30.22,West,274,7.0,8.0,39,0.00,,,0.09,,VWS V14.01,2013-04-21 01:21:00,
2013-04-20 21:26:00,48.2,24.4,30.22,SW,220,6.0,9.0,39,0.00,,,0.09,,VWS V14.01,2013-04-21 01:26:00,
2013-04-20 21:30:00,48.2,24.4,30.24,WSW,249,6.0,11.0,39,0.00,,,0.09,,VWS V14.01,2013-04-21 01:30:00,
2013-04-20 21:31:00,48.2,24.4,30.24,WNW,286,1.0,8.0,39,0.00,,,0.09,,VWS V14.01,2013-04-21 01:31:00,
2013-04-20 21:36:00,48.1,24.3,30.24,WNW,286,0.0,12.0,39,0.00,,,0.09,,VWS V14.01,2013-04-21 01:36:00,
2013-04-20 21:41:00,47.9,24.1,30.24,WSW,238,6.0,12.0,39,0.00,,,0.09,,VWS V14.01,2013-04-21 01:41:00,
2013-04-20 21:45:00,47.8,24.1,30.25,WSW,246,0.0,12.0,39,0.00,,,0.09,,VWS V14.01,2013-04-21 01:45:00,
2013-04-20 21:46:00,47.8,24.1,30.25,South,190,6.0,8.0,39,0.00,,,0.09,,VWS V14.01,2013-04-21 01:46:00,
2013-04-20 21:51:00,47.5,23.8,30.25,West,272,0.0,8.0,39,0.00,,,0.09,,VWS V14.01,2013-04-21 01:51:00,
2013-04-20 21:56:00,47.2,24.1,30.25,SW,220,8.0,11.0,40,0.00,,,0.09,,VWS V14.01,2013-04-21 01:56:00,
2013-04-20 22:00:00,46.9,23.2,30.26,WSW,238,7.0,15.0,39,0.00,,,0.09,,VWS V14.01,2013-04-21 02:00:00,
2013-04-20 22:01:00,46.9,23.3,30.26,SW,234,5.0,7.0,39,0.00,,,0.09,,VWS V14.01,2013-04-21 02:01:00,
2013-04-20 22:06:00,46.6,23.0,30.26,West,261,15.0,16.0,39,0.00,,,0.09,,VWS V14.01,2013-04-21 02:06:00,
2013-04-20 22:11:00,46.3,23.3,30.26,West,269,3.0,16.0,40,0.00,,,0.09,,VWS V14.01,2013-04-21 02:11:00,
2013-04-20 22:15:00,46.2,23.2,30.28,West,261,7.0,16.0,40,0.00,,,0.09,,VWS V14.01,2013-04-21 02:15:00,
2013-04-20 22:16:00,46.2,23.2,30.28,NNE,29,2.0,9.0,40,0.00,,,0.09,,VWS V14.01,2013-04-21 02:16:00,
2013-04-20 22:21:00,46.0,23.0,30.28,WSW,250,7.0,9.0,40,0.00,,,0.09,,VWS V14.01,2013-04-21 02:21:00,
2013-04-20 22:26:00,45.7,22.2,30.28,West,279,0.0,12.0,39,0.00,,,0.09,,VWS V14.01,2013-04-21 02:26:00,
2013-04-20 22:30:00,45.6,22.7,30.28,WSW,240,6.0,12.0,40,0.00,,,0.09,,VWS V14.01,2013-04-21 02:30:00,
2013-04-20 22:31:00,45.4,22.5,30.28,SW,236,7.0,8.0,40,0.00,,,0.09,,VWS V14.01,2013-04-21 02:31:00,
2013-04-20 22:36:00,45.3,21.8,30.28,SSW,205,7.0,15.0,39,0.00,,,0.09,,VWS V14.01,2013-04-21 02:36:00,
2013-04-20 22:41:00,45.0,21.5,30.28,WSW,246,9.0,15.0,39,0.00,,,0.09,,VWS V14.01,2013-04-21 02:41:00,
2013-04-20 22:45:00,44.7,21.9,30.29,WSW,246,4.0,15.0,40,0.00,,,0.09,,VWS V14.01,2013-04-21 02:45:00,
2013-04-20 22:46:00,44.7,21.9,30.29,West,275,4.0,4.0,40,0.00,,,0.09,,VWS V14.01,2013-04-21 02:46:00,
2013-04-20 22:51:00,44.5,21.7,30.29,SSW,209,4.0,10.0,40,0.00,,,0.09,,VWS V14.01,2013-04-21 02:51:00,
2013-04-20 22:56:00,44.4,21.6,30.29,NE,40,0.0,10.0,40,0.00,,,0.09,,VWS V14.01,2013-04-21 02:56:00,
2013-04-20 23:00:00,44.1,21.3,30.30,NE,36,0.0,12.0,40,0.00,,,0.09,,VWS V14.01,2013-04-21 03:00:00,
2013-04-20 23:01:00,44.1,21.3,30.30,NE,36,0.0,0.0,40,0.00,,,0.09,,VWS V14.01,2013-04-21 03:01:00,
2013-04-20 23:06:00,44.0,21.2,30.30,NNW,344,4.0,12.0,40,0.00,,,0.09,,VWS V14.01,2013-04-21 03:06:00,
2013-04-20 23:11:00,43.7,21.0,30.30,West,281,0.0,12.0,40,0.00,,,0.09,,VWS V14.01,2013-04-21 03:11:00,
2013-04-20 23:15:00,43.4,20.1,30.31,WNW,303,0.0,12.0,39,0.00,,,0.09,,VWS V14.01,2013-04-21 03:15:00,
2013-04-20 23:16:00,43.4,20.1,30.31,WNW,303,0.0,0.0,39,0.00,,,0.09,,VWS V14.01,2013-04-21 03:16:00,
2013-04-20 23:21:00,43.1,19.8,30.31,SW,218,4.0,9.0,39,0.00,,,0.09,,VWS V14.01,2013-04-21 03:21:00,
2013-04-20 23:26:00,42.8,20.2,30.31,NNW,343,7.0,9.0,40,0.00,,,0.09,,VWS V14.01,2013-04-21 03:26:00,
2013-04-20 23:30:00,42.7,20.1,30.32,WSW,254,5.0,9.0,40,0.00,,,0.09,,VWS V14.01,2013-04-21 03:30:00,
2013-04-20 23:31:00,42.7,20.1,30.32,WSW,254,1.0,5.0,40,0.00,,,0.09,,VWS V14.01,2013-04-21 03:31:00,
2013-04-20 23:36:00,42.5,19.9,30.32,West,277,4.0,8.0,40,0.00,,,0.09,,VWS V14.01,2013-04-21 03:36:00,
2013-04-20 23:41:00,42.3,19.7,30.32,WNW,296,0.0,8.0,40,0.00,,,0.09,,VWS V14.01,2013-04-21 03:41:00,
2013-04-20 23:45:00,42.1,19.5,30.32,WSW,246,8.0,13.0,40,0.00,,,0.09,,VWS V14.01,2013-04-21 03:45:00,
2013-04-20 23:46:00,42.1,19.5,30.32,West,263,7.0,8.0,40,0.00,,,0.09,,VWS V14.01,2013-04-21 03:46:00,
2013-04-20 23:51:00,42.0,20.0,30.32,West,281,5.0,13.0,41,0.00,,,0.09,,VWS V14.01,2013-04-21 03:51:00,
2013-04-20 23:56:00,41.8,19.8,30.32,SW,222,5.0,15.0,41,0.00,,,0.09,,VWS V14.01,2013-04-21 03:56:00,